Location: Newark
(43.0000°N, 1.6781°W)
Time: 19:01:47
(UTC+00:00)

Transit 2A Rocket - Pass Details

Date: 22 April 2021
Orbit: 594 x 908 km, 66.7° (Epoch: 05 May)

Event Time Altitude Azimuth Distance (km) Brightness Sun altitude
Rises 23:06:57 0° 332° (NNW) 2,887 9.0 -32.9°
Reaches altitude 10° 23:09:11 10° 337° (NNW) 2,006 8.0 -33.0°
Enters shadow 23:11:23 28° 349° (NNW) 1,209 6.5 -33.1°
